This is the latest recevied weather packets stored in our database for station/object DL6DJ-15. If no packets are shown the sender has not sent any weather packets the latest 10 day(s).
| Time | Temp. | Humidity | Pressure | Rain* | Wind** | Luminosity | Snow |
|---|---|---|---|---|---|---|---|
| 1777599755 | 1.67° C | 59% | 1029.1 hPa | - | - | - | - |
| 1777599454 | 1.67° C | 59% | 1029 hPa | - | - | - | - |
| 1777599154 | 1.67° C | 58% | 1029.1 hPa | - | - | - | - |
| 1777598854 | 1.67° C | 59% | 1029.1 hPa | - | - | - | - |
| 1777598553 | 1.67° C | 58% | 1029.1 hPa | - | - | - | - |
| 1777598253 | 1.67° C | 58% | 1029.2 hPa | - | - | - | - |
| 1777597051 | 2.22° C | 57% | 1029.2 hPa | - | - | - | - |
| 1777596751 | 2.22° C | 57% | 1029.2 hPa | - | - | - | - |
| 1777596451 | 2.78° C | 56% | 1029.2 hPa | - | - | - | - |
| 1777596150 | 2.78° C | 56% | 1029.2 hPa | - | - | - | - |
| 1777595850 | 2.78° C | 56% | 1029.3 hPa | - | - | - | - |
| 1777595550 | 2.78° C | 55% | 1029.2 hPa | - | - | - | - |
| 1777595249 | 3.33° C | 55% | 1029.4 hPa | - | - | - | - |
| 1777594949 | 3.33° C | 55% | 1029.3 hPa | - | - | - | - |
| 1777594649 | 3.33° C | 54% | 1029.3 hPa | - | - | - | - |
| 1777594348 | 3.33° C | 53% | 1029.2 hPa | - | - | - | - |
| 1777594048 | 3.33° C | 53% | 1029.3 hPa | - | - | - | - |
| 1777593747 | 3.33° C | 52% | 1029.2 hPa | - | - | - | - |
| 1777593447 | 3.33° C | 52% | 1029.3 hPa | - | - | - | - |
| 1777593147 | 3.89° C | 50% | 1029.3 hPa | - | - | - | - |
| 1777592846 | 3.33° C | 49% | 1029.3 hPa | - | - | - | - |
| 1777592245 | 2.78° C | 54% | 1029.3 hPa | - | - | - | - |
| 1777591945 | 3.33° C | 53% | 1029.3 hPa | - | - | - | - |
| 1777591645 | 3.33° C | 53% | 1029.2 hPa | - | - | - | - |
| 1777591344 | 3.33° C | 52% | 1029.2 hPa | - | - | - | - |
* Rain since midnight (hover to see other rain measurements)
** Current wind speed in m/s (hover to see current wind gust speed)